Showing default

ICEYE-X50, 63255

Orbit data source: Space-Track

ICEYE-X50, 63255 is a payload satellite owned by ICEYE (FI) in SSO that was launched on Sat, 15 Mar 2025 UTC via an FALCON 9 launch vehicle from the Air Force Western Test Range (AFWTR). Payload-class satellites include a variety of spacecraft equipped with specific instruments for various scientific and technological missions. These include communications satellites like Starlink; space stations such as the ISS; scientific satellites like the Hubble; Earth observation satellites from companies like Planet Labs, Umbra, and HawkEye 360; GPS; miniature CubeSats for education and research; and military/defense satellites.

Loading next visibility...
Identifier
63255, 2025-052AX
Orbit
SSO
Country
Flag of FIFI / FIN
Related business
Manufacturer
ICEYE
Mission
Operational Commercial Radar Imaging
Bus & Motor
ICEYE, Unknown motor
Mass
80 kg wet, 80 kg dry
Launch date (UTC)
2025-03-15 (2 years ago)
Launch vehicle
FALCON 9
Launch site
Air Force Western Test Range (AFWTR)
Object type
Payload
Rocket body
Debris
Shape & HBR
Box + 1 Pan, 2.4 m
Radar Cross Section
0.776 m², Medium (>0.1 m² and < 1m²)

Expand to show TLE details & history
Last TLE update: 9 hours ago

TLE from 9 hours ago
0 ICEYE-X50
1 63255U 25052AX  26265.58264042  .00001474  00000-0  13813-3 0  9992
2 63255  97.6736 155.5444 0000663 177.4446 182.6778 14.95534881 83207
Epoch: 2026-09-22T13:59Z
TLE epoch observation values (Epoch: 2026-09-22T13:59:00.132Z)
Latitude
-0.00007°
Longitude
-55.65218°
Altitude
584.223 km
Speed
7.568 km/s
True Right ascension
10h 22m 10s
True Declination
0° 00' 00"
Sunlit
Object was in daylight at epoch
Visualization orbit readout
Latitude
Unknown
Longitude
Unknown
Altitude
Unknown
Speed
Unknown
Apparent Right ascension
Unknown
Apparent Declination
Unknown
Sunlit
N/A
Visualization observer readout
Local Sidereal Time
15:36:06
Azimuth
Unknown
Elevation
Unknown
Doppler factor
Unknown
Orbital elements
Apogee altitude
578.184 km
Perigee altitude
577.262 km
Semi-major axis
6,955.86 km
Eccentricity
0.00007
Inclination
97.6736°
RAAN
155.5444°
Arg. of periapsis
177.4446°
True anomaly
182.67745°
Mean anomaly
182.6778°
Eccentric anomaly
182.67762°
Mean motion
3.74125 °/min
Orbital period
96.22 mins
BSTAR
0.00013813
Loading maneuver chart data...
Computing Atmospheric mass density...
Loading historical data...
Loading historical data...
Loading historical data...
Loading historical data...
Loading historical data...
Loading historical data...
Loading historical data...

Documentation

Showing up to 5 results
|